Weather History for Kirksville, MO

Change the Weather History Date:

Thursday, February 21, 2013

  Actual Average Record
Temperature  
Mean Temperature 21 °F 31 °F  
Max Temperature 26 °F 41 °F 69 °F (1922)
Min Temperature 16 °F 22 °F -4 °F (1918)
Degree Days  
Heating Degree Days 44 34  
Month to date heating degree days 733 761  
Since 1 July heating degree days 4109 4308  
Cooling Degree Days 0 0  
Month to date cooling degree days 0 0  
Year to date cooling degree days 0 0  
Moisture  
Dew Point 19 °F    
Average Humidity 83    
Maximum Humidity 92    
Minimum Humidity 74    
Precipitation  
Precipitation 0.76 in 0.05 in 0.80 in (1937)
Month to date precipitation 2.15 1.13  
Year to date precipitation 4.25 2.40  
Sea Level Pressure  
Sea Level Pressure 29.97 in    
Wind  
Wind Speed 14 mph (East)    
Max Wind Speed 23 mph    
Max Gust Speed 31 mph    
Visibility 2 miles    
Events Fog , Snow    
T = Trace of Precipitation, MM = Missing Value Source: NWS Daily Summary

Daily Weather History Graph

Daily Weather History Graph

Search for Another Location

Airport:

Trip Planner

Search our weather history database for the weather conditions in past years. The results will help you decide how hot, cold, wet, or windy it might be!

Date:

Astronomy

Feb. 21, 2013 Rise Set
Actual Time 6:54 AM CST 5:53 PM CST
Civil Twilight 6:27 AM CST 6:20 PM CST
Nautical Twilight 5:55 AM CST 6:52 PM CST
Astronomical Twilight 5:24 AM CST 7:23 PM CST
Moon 2:08 PM CST (2/21) 3:59 AM CST (2/21)
Length of Visible Light 11h 53m
Length of Day
10h 58m
Waxing Gibbous, 84% of the Moon is Illuminated
Feb 21
Waxing Gibbous
Feb 25
Full
Mar 4
Last Quarter
Mar 11
New
Mar 19
First Quarter

Hourly Weather History & Observations

Time (CST) Temp. Windchill Dew Point Humidity Pressure Visibility Wind Dir Wind Speed Gust Speed Precip Events Conditions
1:55 AM 16.0 °F 5.3 °F 10.9 °F 81% 30.35 in 10.0 mi ENE 8.1 mph - N/A   Clear
2:55 AM 17.1 °F 4.3 °F 12.0 °F 81% 30.30 in 10.0 mi ENE 11.5 mph - N/A   Clear
3:55 AM 16.0 °F 2.9 °F 10.9 °F 81% 30.26 in 10.0 mi ENE 11.5 mph - N/A   Clear
4:55 AM 17.1 °F 3.0 °F 12.0 °F 81% 30.27 in 10.0 mi East 13.8 mph - N/A   Clear
5:55 AM 18.0 °F 6.1 °F 12.9 °F 81% 30.24 in 10.0 mi East 10.4 mph - N/A   Mostly Cloudy
6:55 AM 18.0 °F 4.8 °F 14.0 °F 84% 30.25 in 10.0 mi East 12.7 mph - N/A   Partly Cloudy
7:55 AM 19.0 °F 5.6 °F 15.1 °F 85% 30.24 in 9.0 mi East 13.8 mph - N/A   Mostly Cloudy
8:55 AM 19.9 °F 6.7 °F 16.0 °F 85% 30.22 in 9.0 mi East 13.8 mph 20.7 mph N/A   Overcast
9:55 AM 19.9 °F 7.9 °F 16.0 °F 85% 30.24 in 10.0 mi East 11.5 mph - N/A   Overcast
10:53 AM 21.2 °F 6.4 °F 15.8 °F 80% 30.13 in 1.8 mi ENE 18.4 mph 24.2 mph 0.00 in Snow Light Snow
10:55 AM 21.0 °F 6.6 °F 16.0 °F 81% 30.19 in 1.2 mi East 17.3 mph 24.2 mph 0.00 in Snow Light Snow
11:04 AM 19.4 °F 5.5 °F 15.8 °F 86% 30.14 in 0.5 mi East 15.0 mph 21.9 mph 0.00 in Fog , Snow Snow
11:17 AM 19.4 °F 4.5 °F 17.6 °F 93% 30.13 in 0.2 mi East 17.3 mph 20.7 mph 0.02 in Fog , Snow Heavy Snow
11:24 AM 19.4 °F 5.5 °F 17.6 °F 93% 30.12 in 0.2 mi East 15.0 mph 20.7 mph 0.03 in Fog , Snow Heavy Snow
11:55 AM 19.9 °F 5.2 °F 17.1 °F 89% 30.13 in 0.2 mi ENE 17.3 mph 24.2 mph 0.09 in Fog , Snow Snow
12:02 PM 19.4 °F 5.0 °F 17.6 °F 93% 30.07 in 0.2 mi ENE 16.1 mph 25.3 mph N/A Fog , Snow Snow
12:12 PM 19.4 °F 4.5 °F 17.6 °F 93% 30.08 in 0.2 mi East 17.3 mph 24.2 mph 0.03 in Fog , Snow Snow
12:23 PM 19.4 °F 5.0 °F 17.6 °F 93% 30.07 in 0.2 mi East 16.1 mph 24.2 mph 0.05 in Fog , Snow Snow
12:31 PM 19.4 °F 3.6 °F 17.6 °F 93% 30.07 in 0.2 mi East 19.6 mph 26.5 mph 0.07 in Fog , Snow Heavy Snow
12:40 PM 19.4 °F 5.0 °F 17.6 °F 93% 30.05 in 0.2 mi ENE 16.1 mph 27.6 mph 0.09 in Fog , Snow Heavy Snow
12:55 PM 19.9 °F 4.8 °F 17.1 °F 89% 30.08 in 0.2 mi East 18.4 mph 26.5 mph 0.12 in Fog , Snow Heavy Snow
1:27 PM 19.4 °F 4.1 °F 17.6 °F 93% 30.02 in 0.2 mi East 18.4 mph 26.5 mph 0.14 in Fog , Snow Snow
1:55 PM 19.9 °F 3.2 °F 17.1 °F 89% 30.03 in 0.2 mi East 23.0 mph 29.9 mph 0.16 in Fog , Snow Snow
2:40 PM 21.2 °F 6.0 °F 17.6 °F 86% 29.95 in 0.2 mi ENE 19.6 mph 29.9 mph 0.08 in Fog , Snow Snow
2:55 PM 21.0 °F 5.4 °F 18.0 °F 88% 29.99 in 0.2 mi ENE 20.7 mph 28.8 mph 0.09 in Fog , Snow Snow
3:18 PM 21.2 °F 6.0 °F 19.4 °F 93% 29.92 in 0.5 mi East 19.6 mph 26.5 mph 0.02 in Fog , Snow Snow
3:26 PM 21.2 °F 5.6 °F 19.4 °F 93% 29.92 in 1.0 mi East 20.7 mph 28.8 mph 0.02 in Snow Light Snow
3:42 PM 21.2 °F 6.0 °F 19.4 °F 93% 29.91 in 1.5 mi East 19.6 mph 27.6 mph 0.02 in Snow Light Snow
3:55 PM 21.9 °F 5.8 °F 19.0 °F 89% 29.96 in 0.8 mi East 23.0 mph 31.1 mph 0.03 in Snow Light Snow
4:04 PM 23.0 °F 9.2 °F 19.4 °F 86% 29.89 in 1.0 mi East 17.3 mph 28.8 mph 0.00 in Snow Light Snow
4:37 PM 23.0 °F 8.7 °F 19.4 °F 86% 29.87 in 0.8 mi East 18.4 mph 26.5 mph 0.01 in Snow Light Snow
4:46 PM 23.0 °F 9.6 °F 19.4 °F 86% 29.87 in 0.8 mi East 16.1 mph 27.6 mph 0.02 in Snow Light Snow
4:55 PM 23.0 °F 8.7 °F 19.9 °F 88% 29.93 in 0.8 mi East 18.4 mph 25.3 mph 0.02 in Snow Light Snow
4:58 PM 24.8 °F 10.7 °F 19.4 °F 80% 29.87 in 1.0 mi East 19.6 mph 25.3 mph 0.00 in Snow Light Snow
5:44 PM 24.8 °F 11.1 °F 19.4 °F 80% 29.86 in 0.8 mi East 18.4 mph - 0.00 in Snow Light Snow
5:55 PM 24.1 °F 10.1 °F 21.0 °F 88% 29.91 in 0.8 mi East 18.4 mph 26.5 mph 0.01 in Snow Light Snow
6:06 PM 24.8 °F 11.1 °F 21.2 °F 86% 29.85 in 1.5 mi East 18.4 mph 25.3 mph 0.00 in Snow Light Snow
6:35 PM 24.8 °F 11.1 °F 21.2 °F 86% 29.83 in 1.0 mi East 18.4 mph 24.2 mph 0.01 in Snow Light Snow
6:45 PM 24.8 °F 11.9 °F 21.2 °F 86% 29.83 in 1.2 mi East 16.1 mph 21.9 mph 0.02 in Snow Light Snow
6:55 PM 24.1 °F 13.1 °F 21.0 °F 88% 29.88 in 1.8 mi East 11.5 mph 20.7 mph 0.02 in Snow Light Snow
7:24 PM 24.8 °F 14.0 °F 21.2 °F 86% 29.84 in 1.0 mi East 11.5 mph - 0.02 in Snow Light Snow
7:33 PM 24.8 °F 14.0 °F 21.2 °F 86% 29.83 in 0.8 mi East 11.5 mph - 0.03 in Snow Light Snow
7:38 PM 24.8 °F 12.9 °F 21.2 °F 86% 29.83 in 0.5 mi East 13.8 mph - 0.04 in Fog , Snow Snow
7:55 PM 24.1 °F 13.7 °F 21.9 °F 91% 29.88 in 0.5 mi East 10.4 mph - 0.06 in Fog , Snow Snow
8:28 PM 24.8 °F 15.3 °F 21.2 °F 86% 29.82 in 0.8 mi East 9.2 mph - 0.04 in Snow Light Snow
8:47 PM 24.8 °F 16.1 °F 23.0 °F 93% 29.82 in 1.0 mi East 8.1 mph - 0.05 in Snow Light Snow
8:55 PM 24.1 °F 15.2 °F 23.0 °F 96% 29.87 in 1.0 mi East 8.1 mph - 0.05 in Snow Light Snow
9:35 PM 24.8 °F 16.1 °F 23.0 °F 93% 29.81 in 0.5 mi East 8.1 mph - 0.04 in Fog , Snow Snow
9:51 PM 24.8 °F 16.1 °F 23.0 °F 93% 29.81 in 0.8 mi East 8.1 mph - 0.07 in Snow Light Snow
9:55 PM 25.0 °F 17.1 °F 23.0 °F 92% 29.86 in 0.8 mi East 6.9 mph - 0.07 in Snow Light Snow
10:04 PM 24.8 °F 16.9 °F 23.0 °F 93% 29.81 in 0.8 mi East 6.9 mph - 0.00 in Snow Light Snow
10:34 PM 24.8 °F 17.9 °F 23.0 °F 93% 29.79 in 1.8 mi East 5.8 mph - 0.03 in Snow Light Snow
10:38 PM 24.8 °F 16.9 °F 23.0 °F 93% 29.79 in 3.0 mi East 6.9 mph - 0.03 in Snow Light Snow
10:55 PM 25.0 °F 15.5 °F 23.0 °F 92% 29.84 in 4.0 mi East 9.2 mph - 0.03 in   Overcast
11:14 PM 24.8 °F 16.1 °F 24.8 °F 100% 29.79 in 2.5 mi ESE 8.1 mph - 0.00 in Snow Light Snow
11:18 PM 24.8 °F 16.9 °F 24.8 °F 100% 29.79 in 2.0 mi East 6.9 mph - 0.00 in Snow Light Snow
11:24 PM 26.6 °F 19.1 °F 24.8 °F 93% 29.79 in 1.5 mi East 6.9 mph - 0.00 in Snow Light Snow
11:42 PM 26.6 °F 19.1 °F 24.8 °F 93% 29.78 in 1.8 mi East 6.9 mph - 0.01 in Snow Light Snow
11:50 PM 26.6 °F 19.1 °F 24.8 °F 93% 29.78 in 2.0 mi East 6.9 mph - 0.01 in Snow Light Snow
11:51 PM 26.1 °F 18.4 °F 24.1 °F 92% 29.83 in 2.0 mi East 6.9 mph - 0.01 in Snow Light Snow